�N����,����,�~����,�C��,���x,�C��,����,���ϕ���,�ő�u�ԕ���,�ő厞����,���˗�,�I�_���x,�n�����x,�ő啗���N��,DTYPE
"17/09/04","00:10",0.0,17.3,88.5,1010.0,315.8,1.3,1.8,333.6,0.00,15.4,22.9,"00:00:32",1
"17/09/04","00:20",0.0,17.1,89.4,1009.7,317.3,0.8,1.3,301.1,0.00,15.4,22.8,"00:16:08",1
"17/09/04","00:30",0.0,17.2,89.9,1009.3,330.3,1.3,2.1,340.2,0.00,15.6,22.7,"00:21:36",1
"17/09/04","00:40",0.0,17.7,90.0,1009.3,334.1,1.2,2.1,316.9,0.00,16.1,22.8,"00:32:00",1
"17/09/04","00:50",0.0,17.8,89.4,1009.5,304.4,1.2,2.0,323.5,0.00,16.1,22.7,"00:40:32",1
"17/09/04","01:00",0.0,17.7,89.5,1009.3,310.0,1.2,2.0,323.9,0.00,16.0,22.9,"00:57:20",1
"17/09/04","01:10",0.0,17.7,89.5,1009.3,318.8,1.0,1.8,322.1,0.00,16.0,22.7,"01:02:48",1
"17/09/04","01:20",0.0,17.6,89.8,1009.5,316.3,1.5,1.9,313.1,0.00,15.9,22.6,"01:18:48",1
"17/09/04","01:30",0.0,17.5,90.7,1009.5,327.8,1.2,2.0,320.9,0.00,16.0,22.7,"01:20:24",1
"17/09/04","01:40",0.0,17.7,90.9,1009.3,310.1,1.5,2.6,334.9,0.00,16.2,22.7,"01:30:40",1
"17/09/04","01:50",0.0,18.0,90.2,1009.3,300.8,1.3,2.6,317.2,0.00,16.4,22.6,"01:44:24",1
"17/09/04","02:00",0.0,18.1,90.1,1009.5,318.2,1.2,2.2,321.5,0.00,16.5,22.6,"01:55:52",1
"17/09/04","02:10",0.0,18.0,89.9,1009.5,329.6,2.0,3.2,331.8,0.00,16.4,22.5,"02:05:04",1
"17/09/04","02:20",0.0,18.1,90.0,1009.5,325.8,2.0,2.8,331.7,0.00,16.5,22.5,"02:12:08",1
"17/09/04","02:30",0.0,18.3,89.9,1009.7,326.8,2.3,3.6,337.5,0.00,16.7,22.4,"02:23:44",1
"17/09/04","02:40",0.0,18.6,89.0,1009.5,328.0,2.6,3.9,341.2,0.00,16.8,22.5,"02:32:56",1
"17/09/04","02:50",0.0,18.6,88.2,1009.5,329.1,1.8,2.6,308.8,0.00,16.7,22.5,"02:40:24",1
"17/09/04","03:00",0.0,18.6,88.2,1010.0,317.1,1.8,4.1,328.9,0.00,16.7,22.2,"02:58:16",1
"17/09/04","03:10",0.0,18.6,87.5,1010.0,329.0,2.1,3.3,336.1,0.00,16.5,22.4,"03:08:00",1
"17/09/04","03:20",0.0,18.3,88.0,1010.2,327.0,2.3,3.4,328.5,0.00,16.3,22.4,"03:10:56",1
"17/09/04","03:30",0.0,18.2,88.5,1009.7,322.4,1.7,3.3,327.4,0.00,16.3,22.2,"03:29:36",1
"17/09/04","03:40",0.0,18.2,88.7,1010.0,327.5,1.7,2.9,343.6,0.00,16.3,22.2,"03:31:44",1
"17/09/04","03:50",0.0,18.1,89.0,1010.4,328.0,2.0,3.1,331.9,0.00,16.3,22.2,"03:49:12",1
"17/09/04","04:00",0.0,18.2,89.0,1010.4,318.7,2.1,2.7,314.9,0.00,16.4,22.2,"03:58:08",1
"17/09/04","04:10",0.0,18.2,88.9,1010.4,326.3,2.1,3.1,340.7,0.00,16.4,22.3,"04:07:36",1
"17/09/04","04:20",0.0,18.1,89.0,1010.4,327.4,2.0,2.9,323.5,0.00,16.3,22.2,"04:11:28",1
"17/09/04","04:30",0.0,18.1,89.1,1010.2,325.2,1.7,3.2,340.8,0.00,16.3,22.0,"04:20:40",1
"17/09/04","04:40",0.0,18.1,89.1,1010.2,332.4,1.6,2.1,327.0,0.00,16.3,22.0,"04:33:36",1
"17/09/04","04:50",0.0,18.0,89.1,1010.2,330.1,1.8,2.9,337.2,0.00,16.2,22.2,"04:45:36",1
"17/09/04","05:00",0.0,18.0,89.1,1010.0,331.5,1.6,2.6,338.6,0.00,16.2,22.1,"04:57:12",1
"17/09/04","05:10",0.0,18.0,89.2,1010.4,327.3,2.2,3.1,339.0,0.00,16.2,22.2,"05:07:56",1
"17/09/04","05:20",0.0,18.0,89.2,1010.4,327.2,2.5,3.3,332.0,0.00,16.2,22.1,"05:19:04",1
"17/09/04","05:30",0.0,18.0,89.0,1010.4,323.7,2.1,3.9,339.7,0.00,16.2,22.0,"05:23:44",1
"17/09/04","05:40",0.0,17.9,89.2,1010.7,327.4,2.1,3.2,337.4,0.00,16.1,21.9,"05:39:04",1
"17/09/04","05:50",0.0,17.9,89.4,1010.7,331.2,2.3,4.0,328.1,0.00,16.2,21.9,"05:49:28",1
"17/09/04","06:00",0.0,18.0,89.4,1010.7,330.7,2.3,3.9,332.7,0.00,16.3,22.0,"05:50:32",1
"17/09/04","06:10",0.0,18.1,89.4,1010.4,327.1,2.1,3.2,332.6,0.00,16.4,21.9,"06:09:04",1
"17/09/04","06:20",0.0,18.6,88.4,1010.7,323.2,2.6,4.1,330.1,0.01,16.7,21.9,"06:17:28",1
"17/09/04","06:30",0.0,18.9,87.1,1010.7,328.1,2.2,4.5,327.6,0.01,16.7,22.1,"06:22:08",1
"17/09/04","06:40",0.0,19.0,86.5,1011.6,319.1,1.5,2.4,344.3,0.01,16.7,22.0,"06:30:40",1
"17/09/04","06:50",0.0,19.1,85.8,1011.6,327.0,1.8,3.3,330.2,0.02,16.7,21.9,"06:46:00",1
"17/09/04","07:00",0.0,19.4,85.0,1011.4,325.1,1.5,2.7,324.6,0.03,16.9,22.0,"06:53:12",1
"17/09/04","07:10",0.0,19.6,84.1,1011.2,335.7,1.2,2.6,344.6,0.03,16.9,22.2,"07:01:04",1
"17/09/04","07:20",0.0,19.7,83.8,1011.4,331.6,1.1,2.2,333.2,0.04,16.9,22.2,"07:14:24",1
"17/09/04","07:30",0.0,19.8,82.8,1011.4,329.7,1.1,1.8,331.5,0.05,16.8,22.3,"07:20:16",1
"17/09/04","07:40",0.0,20.0,83.0,1011.4,309.0,1.2,2.4,327.7,0.06,17.1,22.3,"07:31:04",1
"17/09/04","07:50",0.0,20.2,81.7,1011.2,318.8,1.5,2.8,329.7,0.07,17.0,22.5,"07:42:16",1
"17/09/04","08:00",0.0,20.5,80.5,1011.4,305.7,1.3,2.8,326.5,0.08,17.1,22.4,"07:59:20",1
"17/09/04","08:10",0.0,20.9,78.8,1010.7,301.7,1.2,2.4,307.3,0.09,17.1,22.6,"08:00:08",1
"17/09/04","08:20",0.0,21.2,78.3,1011.2,305.7,1.2,2.7,333.3,0.09,17.3,22.7,"08:16:16",1
"17/09/04","08:30",0.0,21.4,75.0,1011.2,290.2,1.1,2.5,334.8,0.11,16.8,22.9,"08:21:04",1
"17/09/04","08:40",0.0,21.9,75.3,1011.2,260.9,0.6,1.9,330.0,0.13,17.4,23.0,"08:38:56",1
"17/09/04","08:50",0.0,22.4,72.7,1010.4,306.5,1.0,2.1,347.1,0.15,17.3,22.9,"08:49:12",1
"17/09/04","09:00",0.0,22.7,73.1,1010.7,323.0,0.8,2.5,344.0,0.16,17.7,23.2,"08:58:56",1
"17/09/04","09:10",0.0,22.7,70.7,1010.4,289.1,1.1,2.5,233.0,0.17,17.1,23.4,"09:04:56",1
"17/09/04","09:20",0.0,23.1,69.9,1010.7,285.6,0.8,1.6,341.5,0.17,17.4,23.3,"09:13:20",1
"17/09/04","09:30",0.0,23.1,70.6,1010.4,279.4,1.3,2.5,236.0,0.16,17.5,23.2,"09:22:56",1
"17/09/04","09:40",0.0,23.2,71.0,1010.9,300.5,1.2,2.6,334.5,0.17,17.7,23.6,"09:36:16",1
"17/09/04","09:50",0.0,23.4,68.9,1010.7,323.4,1.8,3.4,340.8,0.22,17.4,23.6,"09:42:08",1
"17/09/04","10:00",0.0,23.9,66.8,1010.7,321.9,1.2,2.5,344.7,0.25,17.4,23.9,"09:57:44",1
"17/09/04","10:10",0.0,24.4,61.5,1010.2,321.8,1.5,2.8,343.4,0.30,16.6,24.2,"10:00:32",1
"17/09/04","10:20",0.0,24.9,59.9,1010.2,242.2,0.7,1.9,321.7,0.34,16.6,24.3,"10:19:36",1
"17/09/04","10:30",0.0,24.8,62.1,1010.0,278.3,0.8,2.6,338.2,0.24,17.1,24.6,"10:20:02",1
"17/09/04","10:40",0.0,24.7,62.1,1009.7,278.8,1.0,3.2,339.5,0.20,17.0,24.6,"10:37:52",1
"17/09/04","10:50",0.0,25.4,59.7,1009.3,302.9,1.1,2.7,345.4,0.32,17.0,24.6,"10:41:28",1
"17/09/04","11:00",0.0,25.7,56.9,1009.5,320.9,1.1,2.8,347.9,0.35,16.6,24.8,"10:52:40",1
"17/09/04","11:10",0.0,25.7,55.1,1009.5,331.8,1.3,3.4,348.3,0.29,16.1,25.1,"11:04:24",1
"17/09/04","11:20",0.0,25.9,55.0,1008.8,317.7,1.1,2.6,359.5,0.33,16.2,25.0,"11:11:52",1
"17/09/04","11:30",0.0,26.0,56.9,1008.6,228.1,0.7,1.8,255.8,0.29,16.8,25.2,"11:29:04",1
"17/09/04","11:40",0.0,26.8,52.6,1008.3,310.9,1.0,2.1,221.1,0.38,16.3,25.7,"11:30:24",1
"17/09/04","11:50",0.0,27.3,50.5,1008.6,54.6,0.8,2.2,348.6,0.42,16.2,25.8,"11:40:40",1
"17/09/04","12:00",0.0,27.5,50.2,1008.8,355.5,1.1,2.4,4.8,0.42,16.3,26.2,"11:52:16",1
"17/09/04","12:10",0.0,28.1,50.7,1009.0,309.1,0.8,2.5,1.9,0.45,17.0,26.6,"12:00:32",1
"17/09/04","12:20",0.0,27.7,48.5,1008.8,312.1,1.2,2.9,235.4,0.39,15.9,26.6,"12:17:52",1
"17/09/04","12:30",0.0,26.9,49.6,1008.8,271.0,1.3,3.5,324.4,0.30,15.5,26.7,"12:25:04",1
"17/09/04","12:40",0.0,27.1,50.1,1008.8,256.0,0.7,1.8,227.8,0.25,15.9,26.6,"12:33:28",1
"17/09/04","12:50",0.0,27.1,48.8,1008.3,215.7,1.1,2.6,213.5,0.25,15.5,26.7,"12:45:28",1
"17/09/04","13:00",0.0,27.6,49.6,1008.3,192.3,1.2,2.9,222.8,0.32,16.2,27.0,"12:58:40",1
"17/09/04","13:10",0.0,28.1,50.2,1008.3,201.0,2.0,3.7,229.6,0.49,16.8,27.3,"13:09:20",1
"17/09/04","13:20",0.0,27.3,51.0,1007.8,252.2,1.5,3.9,231.4,0.31,16.3,27.2,"13:14:32",1
"17/09/04","13:30",0.0,27.3,51.0,1007.8,304.5,0.8,2.5,344.7,0.25,16.3,27.3,"13:23:12",1
"17/09/04","13:40",0.0,28.2,47.5,1007.8,224.2,1.6,3.6,224.0,0.46,16.0,27.6,"13:35:28",1
"17/09/04","13:50",0.0,28.9,45.9,1008.1,194.9,1.0,4.0,230.7,0.46,16.1,27.6,"13:44:16",1
"17/09/04","14:00",0.0,28.9,43.1,1008.1,275.7,1.5,4.8,223.9,0.48,15.2,28.1,"13:58:24",1
"17/09/04","14:10",0.0,29.5,43.6,1008.6,198.6,1.6,3.6,225.5,0.48,15.9,28.3,"14:01:04",1
"17/09/04","14:20",0.0,29.4,41.2,1008.3,212.6,1.8,3.3,192.3,0.47,14.9,28.5,"14:13:12",1
"17/09/04","14:30",0.0,29.3,41.7,1008.6,179.8,1.1,3.6,209.6,0.38,15.0,28.5,"14:26:00",1
"17/09/04","14:40",0.0,29.8,39.9,1009.0,175.3,1.2,4.1,227.6,0.40,14.8,28.8,"14:39:04",1
"17/09/04","14:50",0.0,29.1,37.8,1008.8,185.4,1.1,2.1,173.9,0.31,13.3,28.7,"14:40:16",1
"17/09/04","15:00",0.0,28.6,41.0,1008.3,155.1,0.6,1.4,117.6,0.21,14.1,28.3,"14:59:36",1
"17/09/04","15:10",0.0,28.0,40.2,1008.3,161.6,1.5,2.8,193.3,0.20,13.3,28.2,"15:07:04",1
"17/09/04","15:20",0.0,28.6,41.8,1007.8,183.0,0.6,2.0,175.0,0.25,14.4,28.4,"15:16:08",1
"17/09/04","15:30",0.0,27.4,42.8,1007.6,157.3,1.2,2.7,139.0,0.14,13.7,28.2,"15:22:00",1
"17/09/04","15:40",0.0,27.9,42.1,1007.6,159.3,0.8,3.1,225.2,0.19,13.9,28.0,"15:39:28",1
"17/09/04","15:50",0.0,28.2,40.0,1007.1,225.4,1.3,4.3,217.8,0.22,13.4,28.1,"15:49:44",1
"17/09/04","16:00",0.0,27.6,43.8,1006.9,212.4,1.2,2.6,194.9,0.12,14.2,28.2,"15:51:12",1
"17/09/04","16:10",0.0,27.3,45.5,1006.7,277.3,0.8,2.0,236.1,0.10,14.5,27.9,"16:08:56",1
"17/09/04","16:20",0.0,27.1,46.8,1006.4,267.8,0.8,1.9,250.6,0.11,14.8,27.8,"16:18:56",1
"17/09/04","16:30",0.0,27.1,47.0,1006.2,251.7,1.1,2.2,227.6,0.11,14.9,27.6,"16:21:44",1
"17/09/04","16:40",0.0,27.4,45.0,1006.4,272.4,1.0,2.0,229.8,0.10,14.5,27.5,"16:30:08",1
"17/09/04","16:50",0.0,27.2,44.4,1006.9,263.2,0.8,1.9,235.4,0.07,14.1,27.4,"16:46:24",1
"17/09/04","17:00",0.0,26.8,49.0,1006.9,284.5,0.7,1.4,301.5,0.04,15.2,27.3,"16:56:16",1
"17/09/04","17:10",0.0,26.3,52.3,1006.9,325.4,1.1,2.0,339.5,0.03,15.8,27.1,"17:04:00",1
"17/09/04","17:20",0.0,26.1,55.2,1007.1,295.2,0.8,1.4,334.2,0.04,16.5,27.0,"17:10:56",1
"17/09/04","17:30",0.0,25.7,57.9,1007.4,327.0,1.1,2.4,342.5,0.02,16.8,26.9,"17:25:44",1
"17/09/04","17:40",0.0,25.3,59.6,1006.9,337.5,0.7,1.4,353.1,0.01,16.9,26.9,"17:35:44",1
"17/09/04","17:50",0.0,24.8,59.6,1007.8,323.7,1.3,2.7,338.1,0.01,16.4,26.6,"17:47:20",1
"17/09/04","18:00",0.0,24.3,60.9,1007.8,317.5,1.5,2.9,340.8,0.00,16.3,26.6,"17:50:32",1
"17/09/04","18:10",0.0,23.9,62.5,1007.6,306.5,1.3,2.7,326.1,0.00,16.3,26.1,"18:02:08",1
"17/09/04","18:20",0.0,23.5,63.7,1008.1,317.9,1.8,2.5,339.8,0.00,16.3,26.2,"18:15:20",1
"17/09/04","18:30",0.0,23.2,64.7,1008.6,323.5,2.1,3.4,324.6,0.00,16.2,26.0,"18:24:24",1
"17/09/04","18:40",0.0,22.8,65.7,1008.6,312.6,1.6,2.8,332.1,0.00,16.1,25.8,"18:31:52",1
"17/09/04","18:50",0.0,22.6,67.1,1008.6,311.2,1.5,2.8,332.5,0.00,16.2,25.7,"18:45:52",1
"17/09/04","19:00",0.0,22.2,68.0,1008.6,335.5,1.2,2.1,336.7,0.00,16.1,25.3,"18:53:52",1
"17/09/04","19:10",0.0,21.9,69.7,1009.0,313.5,1.3,2.0,325.0,0.00,16.2,25.2,"19:06:40",1
"17/09/04","19:20",0.0,21.6,71.6,1009.0,323.4,1.5,2.2,333.5,0.00,16.3,25.2,"19:18:32",1
"17/09/04","19:30",0.0,21.4,72.7,1009.0,331.4,2.0,3.1,330.7,0.00,16.3,25.1,"19:21:28",1
"17/09/04","19:40",0.0,21.4,71.5,1009.5,320.5,2.0,3.5,332.7,0.00,16.1,25.0,"19:36:16",1
"17/09/04","19:50",0.0,21.6,70.7,1009.5,306.2,1.5,2.4,328.7,0.00,16.1,24.9,"19:40:08",1
"17/09/04","20:00",0.0,21.6,71.4,1009.5,305.6,1.6,2.7,310.0,0.00,16.2,24.9,"19:57:44",1
"17/09/04","20:10",0.0,21.6,71.7,1009.3,326.5,2.1,4.0,315.0,0.00,16.3,24.7,"20:06:08",1
"17/09/04","20:20",0.0,21.7,71.5,1009.5,322.8,2.3,3.9,336.8,0.00,16.4,24.6,"20:15:28",1
"17/09/04","20:30",0.0,21.7,72.4,1009.5,333.2,2.0,3.5,331.0,0.00,16.6,24.7,"20:20:08",1
"17/09/04","20:40",0.0,21.5,72.8,1009.5,326.0,2.0,2.8,321.1,0.00,16.5,24.6,"20:38:16",1
"17/09/04","20:50",0.0,21.6,72.8,1009.7,327.8,2.2,4.2,339.9,0.00,16.6,24.7,"20:47:20",1
"17/09/04","21:00",0.0,21.7,72.8,1010.0,333.9,2.3,3.7,324.0,0.00,16.6,24.3,"20:50:08",1
"17/09/04","21:10",0.0,21.7,72.7,1010.2,327.5,2.8,4.5,328.1,0.00,16.6,24.2,"21:09:20",1
"17/09/04","21:20",0.0,21.5,73.1,1009.7,330.7,2.3,3.7,337.3,0.00,16.5,24.2,"21:18:00",1
"17/09/04","21:30",0.0,21.1,74.4,1010.0,335.1,1.7,4.0,344.1,0.00,16.4,24.2,"21:29:44",1
"17/09/04","21:40",0.0,20.6,76.7,1009.7,335.5,1.6,3.1,343.2,0.00,16.4,24.3,"21:30:24",1
"17/09/04","21:50",0.0,20.2,78.2,1010.2,337.2,1.7,3.2,348.0,0.00,16.3,24.0,"21:44:48",1
"17/09/04","22:00",0.0,20.1,79.1,1010.2,338.3,1.5,2.6,343.5,0.00,16.4,24.0,"21:51:44",1
"17/09/04","22:10",0.0,19.9,79.7,1010.0,338.0,1.6,2.6,328.2,0.00,16.3,23.8,"22:03:36",1
"17/09/04","22:20",0.0,19.8,80.4,1010.0,330.8,2.1,3.4,333.7,0.00,16.4,23.8,"22:17:36",1
"17/09/04","22:30",0.0,19.8,80.2,1010.0,333.4,2.1,3.5,329.8,0.00,16.3,23.7,"22:20:16",1
"17/09/04","22:40",0.0,20.0,79.5,1009.5,330.6,2.2,3.7,331.6,0.00,16.4,23.7,"22:33:20",1
"17/09/04","22:50",0.0,20.2,78.5,1010.0,329.3,2.5,4.5,331.4,0.00,16.4,23.6,"22:47:12",1
"17/09/04","23:00",0.0,20.2,78.5,1009.7,337.5,1.8,3.6,326.4,0.00,16.4,23.4,"22:59:12",1
"17/09/04","23:10",0.0,20.0,78.8,1009.7,336.0,1.8,3.5,343.5,0.00,16.2,23.6,"23:00:32",1
"17/09/04","23:20",0.0,19.8,79.5,1009.7,328.1,2.1,4.8,341.2,0.00,16.2,23.5,"23:16:24",1
"17/09/04","23:30",0.0,19.8,79.8,1010.0,332.1,2.0,3.1,336.8,0.00,16.3,23.2,"23:22:48",1
"17/09/04","23:40",0.0,19.6,80.5,1010.2,329.0,2.1,3.3,330.7,0.00,16.2,23.2,"23:37:44",1
"17/09/04","23:50",0.0,19.5,80.8,1010.0,325.0,2.2,3.4,336.5,0.00,16.2,23.1,"23:40:24",1
"17/09/04","24:00",0.0,19.3,81.2,1009.7,327.4,2.1,3.3,328.7,0.00,16.0,23.1,"23:51:20",1
